This is the latest recevied weather packets stored in our database for station/object W5ITZ. If no packets are shown the sender has not sent any weather packets the latest 10 day(s).
| Time | Temp. | Humidity | Pressure | Rain* | Wind** | Luminosity | Snow |
|---|---|---|---|---|---|---|---|
| 1778083656 | 26.67° C | 87% | 1009.8 hPa | 0 mm | - | 238 W/m² | - |
| 1778083353 | 26.67° C | 86% | 1009.8 hPa | 0 mm | - | 166 W/m² | - |
| 1778083052 | 26.67° C | 88% | 1009.7 hPa | 0 mm | - | 374 W/m² | - |
| 1778082748 | 26.11° C | 91% | 1009.8 hPa | 0 mm | - | 502 W/m² | - |
| 1778081615 | 25.56° C | 92% | 1009.6 hPa | 0 mm | - | 55 W/m² | - |
| 1778081312 | 25.56° C | 91% | 1009.7 hPa | 0 mm | - | 51 W/m² | - |
| 1778081010 | 26.11° C | 91% | 1009.6 hPa | 0 mm | - | 31 W/m² | - |
| 1778080708 | 26.11° C | 91% | 1009.5 hPa | 0 mm | - | 122 W/m² | - |
| 1778080404 | 26.11° C | 92% | 1009.4 hPa | 0 mm | - | 175 W/m² | - |
| 1778080102 | 25.56° C | 92% | 1009 hPa | 0 mm | - | 147 W/m² | - |
| 1778079798 | 25.56° C | 92% | 1009.4 hPa | 0 mm | - | 153 W/m² | - |
| 1778079495 | 25.56° C | 93% | 1009.1 hPa | 0 mm | - | 152 W/m² | - |
| 1778079191 | 25.56° C | 93% | 1009.3 hPa | 0 mm | - | 120 W/m² | - |
| 1778078889 | 25.56° C | 94% | 1009.3 hPa | 0 mm | - | 89 W/m² | - |
| 1778078586 | 25° C | 94% | 1009 hPa | 0 mm | - | 64 W/m² | - |
| 1778078284 | 25° C | 94% | 1009.3 hPa | 0 mm | - | 65 W/m² | - |
| 1778077981 | 25° C | 94% | 1008.9 hPa | 0 mm | - | 37 W/m² | - |
| 1778077679 | 25° C | 94% | 1008.9 hPa | 0 mm | - | 26 W/m² | - |
| 1778077377 | 25° C | 94% | 1009.1 hPa | 0 mm | - | 37 W/m² | - |
| 1778077075 | 25° C | 94% | 1009 hPa | 0 mm | - | 19 W/m² | - |
| 1778076773 | 25° C | 94% | 1008.9 hPa | 0 mm | - | 25 W/m² | - |
| 1778076470 | 25° C | 95% | 1009 hPa | 0 mm | - | 27 W/m² | - |
| 1778076167 | 25° C | 95% | 1008.8 hPa | 0 mm | - | 71 W/m² | - |
| 1778075864 | 25° C | 95% | 1008.9 hPa | 0 mm | - | 90 W/m² | - |
| 1778075560 | 25° C | 95% | 1009.2 hPa | 0 mm | - | 100 W/m² | - |
* Rain latest hour (hover to see other rain measurements)
** Current wind speed in m/s (hover to see current wind gust speed)